Location: Huntsville
(41.2590°N, 111.7678°W)
Time: 19:56:09
(UTC+00:00)

Courier 1B Rocket - Pass Details

Date: 15 June 2021
Orbit: 920 x 1202 km, 28.2° (Epoch: 01 August)

Event Time Altitude Azimuth Distance (km) Brightness Sun altitude
Rises 04:48:49 0° 234° (SW) 3,617 8.0 -15.7°
Reaches altitude 10° 04:52:04 10° 219° (SW) 2,640 7.1 -16.0°
Maximum altitude 04:56:45 22° 171° (S) 1,897 6.0 -16.6°
Enters shadow 04:56:47 22° 170° (S) 1,897 6.0 -16.6°
Drops below altitude 10° 05:01:22 10° 123° (ESE) 2,603 - -17.1°
Sets 05:04:33 0° 108° (ESE) 3,553 - -17.4°
